This is the latest recevied weather packets stored in our database for station/object K4AGR-13. If no packets are shown the sender has not sent any weather packets the latest 10 day(s).
| Time | Temp. | Humidity | Pressure | Rain* | Wind** | Luminosity | Snow |
|---|---|---|---|---|---|---|---|
| 1777637894 | 16.67° C | 81% | 1012.9 hPa | 0 mm | - | 68 W/m² | - |
| 1777637590 | 16.67° C | 81% | 1012.8 hPa | 0 mm | - | 32 W/m² | - |
| 1777637288 | 16.67° C | 82% | 1012.7 hPa | 0 mm | - | 28 W/m² | - |
| 1777636984 | 16.67° C | 83% | 1012.7 hPa | 0 mm | - | 27 W/m² | - |
| 1777636679 | 16.67° C | 82% | 1012.5 hPa | 0 mm | - | 26 W/m² | - |
| 1777636376 | 16.67° C | 82% | 1012.6 hPa | 0 mm | - | 28 W/m² | - |
| 1777636076 | 16.67° C | 81% | 1012.5 hPa | 0 mm | - | 20 W/m² | - |
| 1777635772 | 16.67° C | 80% | 1012.3 hPa | 0 mm | - | 14 W/m² | - |
| 1777635469 | 16.67° C | 80% | 1012.3 hPa | 0 mm | - | 8 W/m² | - |
| 1777635166 | 17.22° C | 80% | 1012.2 hPa | 0 mm | - | 9 W/m² | - |
| 1777634862 | 17.22° C | 78% | 1012.3 hPa | 0 mm | - | 7 W/m² | - |
| 1777634560 | 17.22° C | 79% | 1012.4 hPa | 0 mm | - | 5 W/m² | - |
| 1777634257 | 17.22° C | 78% | 1012.2 hPa | 0 mm | - | 4 W/m² | - |
| 1777633952 | 17.22° C | 80% | 1012.3 hPa | 0 mm | - | 3 W/m² | - |
| 1777633650 | 17.22° C | 79% | 1012.1 hPa | 0 mm | - | 3 W/m² | - |
| 1777633348 | 17.22° C | 80% | 1011.7 hPa | 0 mm | - | 2 W/m² | - |
| 1777633046 | 17.22° C | 80% | 1011.8 hPa | 0 mm | - | 3 W/m² | - |
| 1777632742 | 17.78° C | 79% | 1011.6 hPa | 0 mm | - | 1 W/m² | - |
| 1777632438 | 17.78° C | 81% | 1011.6 hPa | 0 mm | - | 0 W/m² | - |
| 1777632135 | 17.78° C | 81% | 1011.6 hPa | 0 mm | - | 0 W/m² | - |
| 1777631833 | 17.78° C | 81% | 1011.9 hPa | 0 mm | - | 0 W/m² | - |
| 1777631531 | 17.78° C | 82% | 1011.7 hPa | 0 mm | - | 0 W/m² | - |
| 1777631228 | 17.78° C | 81% | 1011.8 hPa | 0 mm | - | 0 W/m² | - |
| 1777630925 | 17.78° C | 81% | 1011.8 hPa | 0 mm | - | 0 W/m² | - |
| 1777630620 | 17.78° C | 81% | 1012.1 hPa | 0 mm | - | 0 W/m² | - |
* Rain latest hour (hover to see other rain measurements)
** Current wind speed in m/s (hover to see current wind gust speed)